Location: Prairie Dale
(45.6972°N, 104.5033°W)
Time: 02:55:01
(UTC+00:00)

AO-73 - Visible Passes

Search period start: 26 June 2022 00:00
Search period end: 06 July 2022 00:00
Orbit: 578 x 658 km, 97.6° (Epoch: 25 June)

Date Brightness Start Highest point End Pass type
(mag) Time Alt. Az. Time Alt. Az. Time Alt. Az.
28 Jun ? 09:40:39 10° ENE 09:41:47 11° E 09:42:56 10° ESE visible
29 Jun ? 09:55:56 10° NE 09:58:45 16° E 10:01:34 10° SE visible
30 Jun ? 10:12:02 10° NE 10:15:40 24° E 10:19:18 10° SSE visible
01 Jul ? 10:28:25 10° NNE 10:32:31 34° E 10:36:38 10° SSE visible
04 Jul ? 09:44:19 10° ENE 09:46:16 13° E 09:48:13 10° ESE visible
05 Jul ? 10:00:02 10° NE 10:03:12 18° E 10:06:21 10° SE visible
